Powrót do katalogu

NIMBUS 2 DEB

AktywnySSO
NORAD 59974·DEBRIS·🇺🇸 United States

Wystrzelony May 15, 1966 z Vandenberg Space Force Base

Loading…

Następne Przeloty (najbliższe 24 godziny)

TLE

ŚwieżeSource: Space-Track

Epoka: Sep 12, 2026, 04:05 UTC

1 59974U 66040CD  26255.17024251  .00001386  00000-0  24499-2 0  9990
2 59974 100.1467  57.3440 0037150 323.1433  36.7144 13.44334154469470

Śledź NIMBUS 2 DEB w czasie rzeczywistym z AllMySat

Download on the App Store